This is the latest recevied weather packets stored in our database for station/object OK0EK-11. If no packets are shown the sender has not sent any weather packets the latest 10 day(s).
| Time | Temp. | Humidity | Pressure | Rain* | Wind** | Luminosity | Snow |
|---|---|---|---|---|---|---|---|
| 1777628744 | 10.56° C | 57% | 1028 hPa | - | - | - | - |
| 1777628145 | 10.56° C | 57% | 1028.1 hPa | - | - | - | - |
| 1777627546 | 10° C | 59% | 1028 hPa | - | - | - | - |
| 1777626946 | 9.44° C | 60% | 1028 hPa | - | - | - | - |
| 1777626347 | 8.89° C | 61% | 1028 hPa | - | - | - | - |
| 1777625748 | 9.44° C | 60% | 1028.1 hPa | - | - | - | - |
| 1777625149 | 9.44° C | 60% | 1028 hPa | - | - | - | - |
| 1777624550 | 9.44° C | 59% | 1028 hPa | - | - | - | - |
| 1777623951 | 10° C | 58% | 1028.2 hPa | - | - | - | - |
| 1777623352 | 10° C | 58% | 1028 hPa | - | - | - | - |
| 1777622752 | 8.89° C | 59% | 1027.9 hPa | - | - | - | - |
| 1777622153 | 8.89° C | 61% | 1028 hPa | - | - | - | - |
| 1777621554 | 8.33° C | 62% | 1028.2 hPa | - | - | - | - |
| 1777620955 | 7.78° C | 62% | 1028.1 hPa | - | - | - | - |
| 1777620471 | 7.78° C | 60% | 1027.8 hPa | - | - | - | - |
| 1777620471 | 7.78° C | 60% | 1028 hPa | - | - | - | - |
| 1777620356 | 7.78° C | 60% | 1028 hPa | - | - | - | - |
| 1777619756 | 7.78° C | 60% | 1027.8 hPa | - | - | - | - |
| 1777619157 | 7.78° C | 60% | 1027.8 hPa | - | - | - | - |
| 1777618559 | 7.78° C | 59% | 1027.7 hPa | - | - | - | - |
| 1777617959 | 7.78° C | 59% | 1027.7 hPa | - | - | - | - |
| 1777617367 | 7.78° C | 59% | 1027.6 hPa | - | - | - | - |
| 1777617359 | 7.78° C | 59% | 1027.6 hPa | - | - | - | - |
| 1777616760 | 7.22° C | 60% | 1027.7 hPa | - | - | - | - |
| 1777616168 | 6.67° C | 60% | 1027.7 hPa | - | - | - | - |
* Rain since midnight (hover to see other rain measurements)
** Current wind speed in m/s (hover to see current wind gust speed)